Location: Artiguedieu
(43.5000°N, 0.5454°E)
Time: 11:30:11
(UTC+00:00)

Cosmos 1833 Rocket - Pass Details

Date: 06 December 2020
Orbit: 834 x 838 km, 71.0° (Epoch: 28 January)

Event Time Altitude Azimuth Distance (km) Brightness Sun altitude
Exits shadow 06:38:56 - 318° (NW) 2,841 4.9 -6.8°
Reaches altitude 10° 06:40:08 10° 312° (NW) 2,452 4.5 -6.6°
Maximum altitude 06:44:42 26° 258° (WSW) 1,580 3.7 -5.9°
Drops below altitude 10° 06:49:15 10° 203° (SSW) 2,437 5.2 -5.2°
Sets 06:52:02 0° 191° (S) 3,365 6.0 -4.7°
